Regional Weather Roundup
Issued by NWS Columbia, SC

Home | Current Version | Previous Version | Text Only | Print | Product List | Glossary On
Versions: 1 2 3 4 5 6 7 8 9 10 11 12 13 14 15 16 17 18 19 20 21 22 23 24 25 26 27 28 29 30 31 32 33 34 35 36 37 38 39 40 41 42 43 44 45 46 47 48 49 50
000
ASUS42 KCAE 201310
RWRCAE
REGIONAL WEATHER ROUNDUP
NATIONAL WEATHER SERVICE COLUMBIA SC
900 AM EDT MON OCT 20 2014

NOTE: "FAIR" INDICATES FEW OR NO CLOUDS BELOW 12,000 FEET WITH NO
SIGNIFICANT WEATHER AND/OR OBSTRUCTIONS TO VISIBILITY.

NOT ALL STATIONS ARE QUALITY CONTROLLED BY THE NATIONAL
WEATHER SERVICE. USE DATA WITH CAUTION...ESPECIALLY
DEWPOINT OBSERVATIONS.

SCZ001>056-GAZ040-063>065-077-201400-
...UPSTATE SOUTH CAROLINA...

CITY           SKY/WX    TMP DP  RH WIND       PRES   REMARKS
ANDERSON       SUNNY     51  49  92 CALM      30.14R
LIBERTY        FAIR      43  43 100 MISG      30.13R
SPARTANBURG    FAIR      50 N/A N/A CALM      30.13S
CLEMSON        FOG       51  48  89 CALM      30.14R VSB<1/4
GREENVILLE     SUNNY     53  48  83 CALM      30.14R
GREENWOOD      SUNNY     50  47  89 CALM      30.16R
GREER          SUNNY     49  47  93 CALM      30.13R
ROCK HILL      SUNNY     50  47  89 SW7       30.15R
LAURENS        FAIR      50 N/A N/A CALM      30.15S


...CENTRAL SOUTH CAROLINA...

CITY           SKY/WX    TMP DP  RH WIND       PRES   REMARKS
COLUMBIA APT   SUNNY     49  45  86 CALM      30.15S
COLUMBIA OWENS SUNNY     51  48  89 CALM      30.16S
DARLINGTON     SUNNY     50  45  81 CALM      30.18R
FLORENCE       SUNNY     53  46  77 CALM      30.16S
MCENTIRE ANGB  MOSUNNY   51  50  95 CALM      30.15S
ORANGEBURG     SUNNY     53  49  86 CALM      30.15S
SUMTER SHAW    SUNNY     52  50  93 NE3       30.14S
NEWBERRY       FAIR      50 N/A N/A S3        30.18R
AIKEN          FAIR      50  50 100 CALM      30.17S
BARNWELL       FAIR      54  52  94 CALM      30.15S
MANNING        FAIR      50 N/A N/A CALM      30.15S
CAMDEN         FAIR      48  45  87 CALM      30.17S
LANCASTER      RAIN      50  50 100 CALM      30.16R
WINNSBORO      FAIR      55  48  76 S5        30.15S


...EASTERN AND COASTAL SOUTH CAROLINA...

CITY           SKY/WX    TMP DP  RH WIND       PRES   REMARKS
MYRTLE BEACH   SUNNY     57  46  67 N7        30.16S
N MYRTLE BCH   SUNNY     57  47  69 NE5       30.16R
CONWAY         FAIR      52  50  93 NE3       30.17R
MARION         FAIR      52  48  87 CALM      30.17S
HARTSVILLE     FAIR      54  34  47 CALM      30.16S
FLORENCE       SUNNY     53  46  77 CALM      30.16S
DARLINGTON     SUNNY     50  45  81 CALM      30.18R
CHARLESTON APT SUNNY     61  51  70 NE3       30.15R
MOUNT PLEASANT FAIR      57  54  88 CALM      30.14S
WALTERBORO     SUNNY     55 N/A N/A CALM      30.15R
BEAUFORT       MOSUNNY   61  52  72 NE7       30.14R


...EASTERN GEORGIA...

CITY           SKY/WX    TMP DP  RH WIND       PRES   REMARKS
AUGUSTA BUSH F SUNNY     47  45  93 CALM      30.15R FOG
AUGUSTA DANIEL SUNNY     55  50  83 CALM      30.15R
THOMSON        SUNNY     50  50 100 CALM      30.18R
WASHINGTON     FAIR      55  55 100 CALM      30.13R
CLAXTON        FAIR      50  50 100 CALM      30.13S
SYLVANIA       SUNNY     56  56  98 CALM      30.15R
STATESBORO     MOSUNNY   50  50 100 CALM      30.14R
SAVANNAH       MOSUNNY   61  53  75 N3        30.13R


...SOUTHERN NORTH CAROLINA...

CITY           SKY/WX    TMP DP  RH WIND       PRES   REMARKS
CHARLOTTE      MOSUNNY   51  45  79 S6        30.15R
MONROE         SUNNY     54  45  71 SW5       30.15R
WADESBORO      SUNNY     43  41  93 CALM      30.16S
ROCKINGHAM     SUNNY     51  44  78 SE3       30.17R
RUTHERFORDTON  MOSUNNY   46  45  97 CALM      30.14S
ASHEVILLE      MOSUNNY   43  41  93 S3        30.14R

$$



USA.gov is the U.S. government's official web portal to all federal, state and local government web resources and services.